Grayling, MI

2:19 AM EDT on April 29, 2017 (GMT -0400)
Grayling

Weather History for KGOV - February, 2013

Change the Weather History Date:

Saturday, February 9, 2013

  Actual Average (KHTL) Record (KHTL)
Temperature  
Mean Temperature 7 °F -  
Max Temperature 28 °F 27 °F 51 °F (1925)
Min Temperature -14 °F 5 °F -28 °F (1951)
Degree Days  
Heating Degree Days 58    
Moisture  
Dew Point 0 °F    
Average Humidity 75    
Maximum Humidity 93    
Minimum Humidity 47    
Precipitation  
Precipitation 0.00 in - - ()
Sea Level Pressure  
Sea Level Pressure 30.29 in    
Wind  
Wind Speed 2 mph (South)    
Max Wind Speed 10 mph    
Max Gust Speed 16 mph    
Visibility 9 miles    
Events Fog    
Averages and records for this station are not official NWS values.
T = Trace of Precipitation, MM = Missing Value Source: NWS Daily Summary

Daily Weather History Graph

Daily Weather History Graph

Search for Another Location

Airport or City:

Trip Planner

Search our weather history database for the weather conditions in past years. The results will help you decide how hot, cold, wet, or windy it might be!

Date:

Astronomy

Feb. 09, 2013 Rise Set
Actual Time 7:47 AM EST 5:59 PM EST
Civil Twilight 7:17 AM EST 6:29 PM EST
Nautical Twilight 6:42 AM EST 7:04 PM EST
Astronomical Twilight 6:08 AM EST 7:38 PM EST
Moon 6:58 AM EST (2/9) 5:42 PM EST (2/9)
Length of Visible Light 11h 12m
Length of Day
10h 11m
Waning Crescent, 0% of the Moon is Illuminated
Feb 9
Waning Crescent
Feb 10
New
Feb 17
First Quarter
Feb 25
Full
Mar 4
Last Quarter

Hourly Weather History & Observations

Time (EST) Temp. Windchill Dew Point Humidity Pressure Visibility Wind Dir Wind Speed Gust Speed Precip Events Conditions
12:16 AM -5.8 °F - -11.2 °F 77% 30.33 in 10.0 mi Calm Calm - N/A   Clear
12:36 AM -5.8 °F - -11.2 °F 77% 30.32 in 7.0 mi Calm Calm - N/A   Clear
12:56 AM -5.8 °F - -9.4 °F 84% 30.33 in 10.0 mi Calm Calm - N/A   Clear
1:16 AM -7.6 °F - -11.2 °F 84% 30.34 in 10.0 mi Calm Calm - N/A   Clear
1:36 AM -5.8 °F - -9.4 °F 84% 30.35 in 7.0 mi Calm Calm - N/A   Clear
1:58 AM -7.6 °F - -13.0 °F 77% 30.36 in 10.0 mi Calm Calm - N/A   Clear
2:16 AM -7.6 °F - -13.0 °F 77% 30.35 in 10.0 mi Calm Calm - N/A   Clear
2:36 AM -11.2 °F - -16.6 °F 77% 30.34 in 10.0 mi Calm Calm - N/A   Mostly Cloudy
2:56 AM -11.2 °F - -16.6 °F 77% 30.35 in 10.0 mi Calm Calm - N/A   Scattered Clouds
3:16 AM -9.4 °F - -14.8 °F 77% 30.35 in 10.0 mi Calm Calm - N/A   Clear
3:36 AM -11.2 °F - -14.8 °F 84% 30.34 in 10.0 mi Calm Calm - N/A   Clear
3:56 AM -11.2 °F - -16.6 °F 77% 30.34 in 10.0 mi Calm Calm - N/A   Clear
4:16 AM -11.2 °F - -16.6 °F 77% 30.34 in 10.0 mi Calm Calm - N/A   Clear
4:36 AM -13.0 °F - -18.4 °F 77% 30.35 in 10.0 mi Calm Calm - N/A   Clear
4:56 AM -13.0 °F - -18.4 °F 77% 30.35 in 10.0 mi Calm Calm - N/A   Clear
5:16 AM -14.8 °F - -20.2 °F 77% 30.35 in 10.0 mi Calm Calm - N/A   Clear
6:20 AM -14.8 °F - -20.2 °F 77% 30.35 in 10.0 mi Calm Calm - N/A   Mostly Cloudy
6:36 AM -11.2 °F - -16.6 °F 77% 30.36 in 10.0 mi Calm Calm - N/A   Mostly Cloudy
6:56 AM -11.2 °F - -16.6 °F 77% 30.36 in 10.0 mi Calm Calm - N/A   Overcast
7:16 AM -11.2 °F - -16.6 °F 77% 30.36 in 10.0 mi Calm Calm - N/A   Mostly Cloudy
7:39 AM -14.8 °F - -20.2 °F 77% 30.36 in 10.0 mi Calm Calm - N/A   Mostly Cloudy
7:56 AM -14.8 °F - -20.2 °F 77% 30.36 in 7.0 mi Calm Calm - N/A   Mostly Cloudy
8:16 AM -13.0 °F - -18.4 °F 77% 30.38 in 0.2 mi Calm Calm - N/A   Haze
8:36 AM -11.2 °F - -16.6 °F 77% 30.37 in 1.0 mi Calm Calm - N/A   Overcast
8:56 AM -9.4 °F - -14.8 °F 77% 30.36 in 0.2 mi Calm Calm - N/A Fog Light Freezing Fog
9:16 AM -7.6 °F - -11.2 °F 84% 30.36 in 0.2 mi Calm Calm - N/A Fog Light Freezing Fog
9:36 AM -5.8 °F - -9.4 °F 84% 30.36 in 0.8 mi Calm Calm - N/A   Mist
9:56 AM -4.0 °F - -9.4 °F 78% 30.36 in 5.0 mi Calm Calm - N/A   Haze
10:16 AM -2.2 °F - -5.8 °F 85% 30.35 in 5.0 mi Calm Calm - N/A   Clear
10:36 AM 1.4 °F - -2.2 °F 85% 30.35 in 7.0 mi Calm Calm - N/A   Clear
10:56 AM 5.0 °F - 3.2 °F 92% 30.35 in 7.0 mi Calm Calm - N/A   Clear
11:16 AM 8.6 °F - 6.8 °F 92% 30.34 in 7.0 mi Calm Calm - N/A   Clear
11:36 AM 15.8 °F 5.1 °F 14.0 °F 93% 30.35 in 10.0 mi SSW 8.1 mph - N/A   Clear
11:56 AM 19.4 °F 10.4 °F 17.6 °F 93% - 10.0 mi South 6.9 mph - N/A   Clear
12:16 PM 19.4 °F 9.5 °F 17.6 °F 93% 30.33 in 10.0 mi South 8.1 mph - N/A   Clear
12:36 PM 21.2 °F 11.7 °F 15.8 °F 80% 30.31 in 10.0 mi SSE 8.1 mph - N/A   Clear
1:03 PM 23.0 °F 15.8 °F 14.0 °F 68% 30.30 in 10.0 mi South 5.8 mph - N/A   Clear
1:16 PM 24.8 °F 14.6 °F 14.0 °F 64% 30.29 in 10.0 mi South 10.4 mph - N/A   Clear
1:36 PM 24.8 °F 15.3 °F 14.0 °F 64% 30.29 in 10.0 mi South 9.2 mph - N/A   Clear
1:56 PM 26.6 °F 19.1 °F 14.0 °F 59% 30.28 in 10.0 mi SSE 6.9 mph - N/A   Clear
2:16 PM 28.4 °F 19.7 °F 14.0 °F 55% 30.27 in 10.0 mi South 9.2 mph - N/A   Clear
2:36 PM 28.4 °F 20.4 °F 12.2 °F 51% 30.26 in 10.0 mi SSE 8.1 mph - N/A   Clear
2:56 PM 28.4 °F 19.1 °F 10.4 °F 47% 30.26 in 10.0 mi South 10.4 mph 16.1 mph N/A   Clear
3:16 PM 28.4 °F 19.1 °F 12.2 °F 51% 30.26 in 10.0 mi South 10.4 mph - N/A   Clear
3:36 PM 28.4 °F 19.1 °F 12.2 °F 51% 30.26 in 10.0 mi South 10.4 mph - N/A   Clear
3:56 PM 28.4 °F 19.1 °F 14.0 °F 55% 30.26 in 10.0 mi SSE 10.4 mph - N/A   Clear
4:16 PM 28.4 °F 19.7 °F 14.0 °F 55% 30.25 in 10.0 mi South 9.2 mph - N/A   Clear
4:36 PM 28.4 °F 19.7 °F 14.0 °F 55% 30.25 in 10.0 mi South 9.2 mph - N/A   Clear
4:56 PM 28.4 °F 19.1 °F 14.0 °F 55% 30.24 in 10.0 mi SSE 10.4 mph - N/A   Clear
5:16 PM 26.6 °F 18.2 °F 12.2 °F 55% 30.24 in 10.0 mi SSE 8.1 mph - N/A   Clear
5:36 PM 26.6 °F 18.2 °F 12.2 °F 55% 30.23 in 10.0 mi South 8.1 mph - N/A   Clear
5:56 PM 24.8 °F 19.1 °F 12.2 °F 59% 30.23 in 10.0 mi South 4.6 mph - N/A   Clear
6:16 PM 23.0 °F 15.8 °F 12.2 °F 63% 30.23 in 10.0 mi South 5.8 mph - N/A   Clear
6:36 PM 23.0 °F 14.7 °F 12.2 °F 63% 30.23 in 10.0 mi SSE 6.9 mph - N/A   Clear
6:56 PM 21.2 °F 16.4 °F 12.2 °F 68% 30.23 in 10.0 mi SSE 3.5 mph - N/A   Clear
7:16 PM 21.2 °F - 10.4 °F 63% 30.23 in 10.0 mi Calm Calm - N/A   Clear
7:36 PM 21.2 °F 14.9 °F 12.2 °F 68% 30.23 in 10.0 mi SSE 4.6 mph - N/A   Clear
7:56 PM 19.4 °F 14.3 °F 12.2 °F 74% 30.23 in 10.0 mi SSE 3.5 mph - N/A   Clear
8:16 PM 19.4 °F - 10.4 °F 68% 30.23 in 10.0 mi Calm Calm - N/A   Clear
8:36 PM 15.8 °F - 10.4 °F 79% 30.22 in 10.0 mi Calm Calm - N/A   Clear
8:56 PM 10.4 °F 4.0 °F 8.6 °F 92% 30.21 in 10.0 mi SE 3.5 mph - N/A   Clear
9:16 PM 8.6 °F - 5.0 °F 85% 30.21 in 10.0 mi Calm Calm - N/A   Clear
9:36 PM 10.4 °F - 8.6 °F 92% 30.21 in 10.0 mi Calm Calm - N/A   Clear
9:56 PM 8.6 °F - 6.8 °F 92% 30.20 in 10.0 mi Calm Calm - N/A   Clear
10:16 PM 5.0 °F - 3.2 °F 92% 30.19 in 10.0 mi Calm Calm - N/A   Clear
10:36 PM 5.0 °F - 3.2 °F 92% 30.19 in 10.0 mi Calm Calm - N/A   Clear
10:56 PM 6.8 °F - 5.0 °F 92% 30.19 in 10.0 mi Calm Calm - N/A   Clear
11:16 PM 5.0 °F - 1.4 °F 85% 30.19 in 10.0 mi Calm Calm - N/A   Clear
11:36 PM 8.6 °F - 6.8 °F 92% 30.18 in 10.0 mi Calm Calm - N/A   Clear
11:56 PM 10.4 °F - 6.8 °F 85% 30.18 in 10.0 mi Calm Calm - N/A   Clear